Content
SEND FEEDBACK

Daily
Averages
Monthly
Summary
Canada

STRATFORD, ONTARIO


Home > North America > Canada > Ontario
Elevation: 1161 feet     Latitude: 43 24N     Longitude: 081 00W

WEATHER
 
SELECT A DAY
Number of Records: 191,106;   Date Range: 1/1/95 - 7/28/14
 
SHARE

PRINT THIS DATA

[ ← Previous Day ]
WEATHER ALMANAC - JANUARY 20, 2013
[ Next Day → ]
[ °C ]   °F
Weather ElementAverageHighLow
Temperature23.2 °F40 °F (1:00 am)15.8 °F (10:00 pm)
Dewpoint14.1 °F33.8 °F (1:00 am)5 °F (8:33 pm)
Humidity67.2 %81 % (1:00 am)44 % (1:00 pm)
Barometer29.91 in30.15 in (10:00 pm)29.49 in (2:00 am)
Wind Speed20.2 mph38 mph (4:31 am)
Wind Gust50.6 mph (4:31 am)
Weather ElementAverage
Visibility11.3 mi
Wind DirectionW (274.8 °)

Weather ElementTotal
Precipitation---
Heating Degree Days37.1 (Base 65)
Averaged from 48 records on January 20, 2013
WEATHER CONDITIONS BREAKOUT
WIND DIRECTION BREAKOUT
WEATHER BY HOUR - JANUARY 20, 2013
[ °C ]   °F
Local TimeTemperatureDewpointHumidityBarometerVisibilityWind DirectionWind SpeedGust SpeedPrecipitationEventsConditions
1:00 AM40.0 °F33.0 °F68 %29.50 in15.0 miSW (230°)23.0 mphOvercast
1:00 AM39.2 °F33.8 °F81 %29.50 in15.0 miSW (230°)23.0 mph32.2 mphOvercast
2:00 AM39.2 °F33.8 °F81 %29.49 in15.0 miSW (230°)20.7 mph34.5 mphOvercast
2:13 AM39.2 °F33.8 °F81 %29.49 in15.0 miSW (220°)21.9 mph31.1 mphRainLight Rain Showers
3:00 AM37.4 °F30.2 °F75 %29.52 in15.0 miWNW (300°)18.4 mph29.9 mphOvercast
3:06 AM35.6 °F28.4 °F75 %29.52 in15.0 miNW (310°)17.3 mph26.5 mphOvercast
4:00 AM35.6 °F28.4 °F75 %29.55 in15.0 miWest (280°)15.0 mph25.3 mphScattered Clouds
4:31 AM33.8 °F21.2 °F60 %29.60 in15.0 miWest (270°)38.0 mph50.6 mphOvercast
5:00 AM28.4 °F15.8 °F59 %29.64 in15.0 miWest (270°)34.5 mph50.6 mphMostly Cloudy
5:37 AM28.4 °F17.6 °F64 %29.68 in10.0 miWest (280°)26.5 mph42.6 mphSnowLight Snow Showers
5:50 AM26.6 °F17.6 °F69 %29.69 in2.5 miWest (280°)28.8 mph46.0 mphSnowLight Snow Showers
6:00 AM26.6 °F19.4 °F74 %29.71 in5.0 miWest (280°)27.6 mph39.1 mphSnowLight Snow Showers
6:07 AM26.6 °F19.4 °F74 %29.71 in2.0 miWest (280°)26.5 mph39.1 mphSnowLight Snow Showers
6:09 AM26.6 °F19.4 °F74 %29.72 in1.5 miWest (280°)25.3 mph38.0 mphSnowLight Snow Showers
6:42 AM23.0 °F17.6 °F80 %29.77 in5.0 miWest (280°)19.6 mph33.4 mphSnowLight Snow Showers
7:00 AM23.0 °F16.0 °F64 %29.79 in15.0 miWNW (290°)21.9 mph
7:00 AM23.0 °F15.8 °F74 %29.79 in15.0 miWest (280°)19.6 mph35.7 mphMostly Cloudy
7:08 AM23.0 °F14.0 °F68 %29.80 in12.0 miWNW (290°)31.1 mph41.4 mphSnowLight Snow Showers
8:00 AM21.2 °F12.2 °F68 %29.87 in15.0 miWNW (290°)27.6 mph41.4 mphSnowLight Snow Showers
9:00 AM19.4 °F10.4 °F68 %29.93 in15.0 miWest (280°)21.9 mph34.5 mphSnowLight Snow Showers
9:35 AM19.4 °F8.6 °F63 %29.96 in1.5 miWest (280°)25.3 mph34.5 mphSnowLight Snow Showers
9:46 AM17.6 °F12.2 °F79 %29.97 in3.0 miWest (280°)18.4 mph38.0 mphSnowLight Snow Showers
10:00 AM17.6 °F10.4 °F73 %29.98 in5.0 miWest (270°)25.3 mph32.2 mphSnowLight Snow Showers
10:41 AM19.4 °F8.6 °F63 %30.00 in15.0 miWest (270°)27.6 mph36.8 mphMostly Cloudy
11:00 AM19.4 °F10.4 °F68 %30.01 in15.0 miWest (280°)20.7 mph32.2 mphMostly Cloudy
12:00 PM21.2 °F8.6 °F58 %30.02 in15.0 miWest (280°)20.7 mph33.4 mphMostly Cloudy
12:14 PM23.0 °F10.4 °F59 %30.02 in10.0 miWest (270°)23.0 mph29.9 mphSnowLight Snow Showers
1:00 PM22.0 °F9.0 °F44 %30.04 in15.0 miWest (280°)23.0 mph
1:00 PM21.2 °F8.6 °F58 %30.04 in15.0 miWest (280°)24.2 mph33.4 mphSnowLight Snow Showers
2:00 PM19.4 °F8.6 °F63 %30.06 in12.0 miWest (270°)19.6 mph28.8 mphSnowLight Snow Showers
3:00 PM19.4 °F8.6 °F63 %30.07 in15.0 miWest (270°)16.1 mph24.2 mphSnowLight Snow Showers
3:38 PM19.4 °F8.6 °F63 %30.09 in15.0 miWest (280°)16.1 mph26.5 mphOvercast
4:00 PM19.4 °F6.8 °F58 %30.09 in15.0 miWest (280°)16.1 mph24.2 mphMostly Cloudy
4:44 PM19.4 °F10.4 °F68 %30.10 in2.0 miWest (280°)13.8 mph23.0 mphSnowLight Snow Showers
5:00 PM19.4 °F10.4 °F68 %30.11 in6.0 miWest (270°)15.0 mph23.0 mphSnowLight Snow Showers
5:14 PM17.6 °F10.4 °F73 %30.12 in2.0 miWest (270°)19.6 mphSnowLight Snow Showers
5:27 PM17.6 °F10.4 °F73 %30.12 in4.0 miWest (280°)15.0 mph24.2 mphSnowLight Snow Showers
6:00 PM17.6 °F8.6 °F68 %30.12 in8.0 miWest (270°)12.7 mph25.3 mphSnowLight Snow Showers
7:00 PM18.0 °F10.0 °F58 %30.14 in10.0 miWest (270°)12.7 mph
7:00 PM17.6 °F10.4 °F73 %30.14 in10.0 miWest (270°)11.5 mph19.6 mphSnowLight Snow Showers
8:00 PM17.6 °F6.8 °F63 %30.14 in10.0 miWest (280°)17.3 mph25.3 mphSnowLight Snow Showers
8:33 PM17.6 °F5.0 °F58 %30.14 in15.0 miWNW (290°)12.7 mph18.4 mphMostly Cloudy
8:49 PM17.6 °F6.8 °F63 %30.14 in15.0 miWNW (300°)10.4 mph19.6 mphSnowLight Snow Showers
9:00 PM17.6 °F6.8 °F63 %30.14 in15.0 miWest (270°)10.4 mph18.4 mphSnowLight Snow Showers
10:00 PM15.8 °F6.8 °F68 %30.15 in15.0 miWest (270°)16.1 mphSnowLight Snow Showers
10:47 PM15.8 °F5.0 °F62 %30.14 in15.0 miWest (280°)11.5 mphMostly Cloudy
11:00 PM15.8 °F5.0 °F62 %30.13 in15.0 miWest (280°)13.8 mphMostly Cloudy
11:53 PM15.8 °F5.0 °F62 %30.12 in15.0 miWest (270°)12.7 mphSnowLight Snow Showers
Hourly data recorded from CYXU, located miles away from Stratford, Ontario







STORIES FROM OUR PARTNERS